Location: Veytaux
(46.4185°N, 6.9320°E)
Time: 08:22:48
(UTC+00:00)

Meteor 2-5 Rocket - Pass Details

Date: 27 May 2022
Orbit: 832 x 912 km, 81.2° (Epoch: 01 July)

Event Time Altitude Azimuth Distance (km) Brightness Sun altitude
Exits shadow 00:50:29 32° 171° (S) 1,449 4.4 -19.9°
Maximum altitude 00:53:09 69° 97° (E) 932 3.9 -19.7°
Drops below altitude 10° 00:58:48 10° 16° (NNE) 2,501 7.4 -19.4°
Sets 01:01:13 0° 14° (NNE) 3,431 8.5 -19.2°
